Date String (YYYY-MM-DD hh:mm:ss) UTC,Instrument flags,Ambient pressure (hPa),Sample flow (lpm),Bypass flow (lpm),Sample temperature (°C),Ambient temperature (°C),ASC tube jacket temperature (°C),LED temperature (°C),Box temperature (°C),Sample RH (%),Span deviation,Mass concentration (μg/m³),Mass concentration (μg/m³),Mass concentration (μg/m³)
DateTimeUTC,F1_M11,P_M11,Q1_M11,Q2_M11,T1_M11,T2_M11,T3_M11,T4_M11,T5_M11,U1_M11,ZSPAN_M11,X0_M11,X2_M11,X1_M11
2022-10-28 17:00:00,,0832.8,5.00,0.00,24.7,23.6,00.0,33.4,26.7,13.2,0000.0,0005.21,0003.16,0002.79
2022-10-28 17:01:00,,0832.9,5.00,0.00,24.8,23.6,00.0,33.5,26.7,13.1,0000.0,0004.84,0003.15,0002.76
2022-10-28 17:02:00,,0832.8,5.00,0.00,24.8,23.6,00.0,33.5,26.7,13.5,0000.0,0004.27,0003.13,0002.74
2022-10-28 17:03:00,,0832.9,5.00,0.00,24.8,23.6,00.0,33.5,26.8,13.4,0000.0,0004.23,0003.10,0002.73
2022-10-28 17:04:00,,0832.8,5.00,0.00,24.8,23.6,00.0,33.5,26.8,13.4,0000.0,0004.74,0003.06,0002.73
2022-10-28 17:05:00,,0832.8,5.00,0.00,24.8,23.7,00.0,33.5,26.8,13.6,0000.0,0004.96,0003.05,0002.72
2022-10-28 17:06:00,,0832.8,5.00,0.00,24.8,23.7,00.0,33.5,26.8,13.5,0000.0,0005.10,0003.06,0002.71
2022-10-28 17:07:00,,0832.8,5.00,0.00,24.9,23.7,00.0,33.5,26.8,13.5,0000.0,0005.05,0003.05,0002.71
2022-10-28 17:08:00,,0832.8,5.00,0.00,24.9,23.7,00.0,33.6,26.8,13.6,0000.0,0005.03,0003.07,0002.73
2022-10-28 17:09:00,,0832.8,5.00,0.00,24.9,23.7,00.0,33.6,26.8,13.9,0000.0,0005.18,0003.14,0002.76
2022-10-28 17:10:00,,0832.8,5.01,0.00,24.9,23.7,00.0,33.6,26.8,13.5,0000.0,0005.20,0003.16,0002.77
2022-10-28 17:11:00,,0832.9,5.00,0.00,24.9,23.7,00.0,33.6,26.9,13.4,0000.0,0005.32,0003.16,0002.77
2022-10-28 17:12:00,,0832.8,4.99,0.00,24.9,23.7,00.0,33.6,26.9,13.0,0000.0,0005.25,0003.15,0002.77
2022-10-28 17:13:00,,0832.9,5.01,0.00,24.9,23.8,00.0,33.6,26.9,13.1,0000.0,0005.17,0003.13,0002.76
2022-10-28 17:14:00,,0832.9,5.00,0.00,25.0,23.8,00.0,33.6,26.9,12.5,0000.0,0005.08,0003.10,0002.74
2022-10-28 17:15:00,,0832.8,5.00,0.00,25.0,23.8,00.0,33.6,26.9,12.8,0000.0,0004.36,0003.07,0002.71
2022-10-28 17:16:00,,0832.8,5.00,0.00,25.0,23.8,00.0,33.7,26.9,13.0,0000.0,0004.14,0003.06,0002.69
2022-10-28 17:17:00,,0832.8,5.00,0.00,25.0,23.8,00.0,33.7,26.9,13.3,0000.0,0003.90,0003.01,0002.66
2022-10-28 17:18:00,,0832.8,5.00,0.00,25.0,23.8,00.0,33.7,27.0,13.5,0000.0,0003.91,0003.02,0002.66
2022-10-28 17:19:00,,0832.8,5.00,0.00,25.0,23.8,00.0,33.7,27.0,13.2,0000.0,0003.91,0003.02,0002.66
2022-10-28 17:20:00,,0832.9,5.00,0.00,25.0,23.8,00.0,33.7,26.9,13.5,0000.0,0003.80,0002.97,0002.65
2022-10-28 17:21:00,,0832.8,4.99,0.00,25.0,23.9,00.0,33.7,27.0,13.5,0000.0,0003.83,0002.96,0002.64
2022-10-28 17:22:00,,0832.9,5.00,0.00,25.0,23.9,00.0,33.7,27.0,13.6,0000.0,0003.73,0002.96,0002.65
2022-10-28 17:23:00,,0832.8,5.00,0.00,25.1,23.9,00.0,33.8,27.0,14.0,0000.0,0003.70,0002.95,0002.67
2022-10-28 17:24:00,,0832.8,5.00,0.00,25.1,23.9,00.0,33.8,27.0,13.6,0000.0,0003.81,0003.02,0002.72
2022-10-28 17:25:00,,0832.9,5.00,0.00,25.1,23.9,00.0,33.8,27.0,14.0,0000.0,0003.90,0003.08,0002.77
2022-10-28 17:26:00,,0832.9,5.00,0.00,25.1,23.9,00.0,33.8,27.1,14.2,0000.0,0003.99,0003.14,0002.82
2022-10-28 17:27:00,,0832.8,4.98,0.00,25.1,23.9,00.0,33.8,27.1,14.1,0000.0,0004.30,0003.18,0002.86
2022-10-28 17:28:00,,0832.8,5.00,0.00,25.1,24.0,00.0,33.8,27.1,14.0,0000.0,0004.56,0003.23,0002.90
2022-10-28 17:29:00,,0832.8,5.00,0.00,25.1,24.0,00.0,33.9,27.1,13.6,0000.0,0004.61,0003.24,0002.92
2022-10-28 17:30:00,,0832.8,5.00,0.00,25.1,24.0,00.0,33.9,27.1,13.4,0000.0,0004.59,0003.24,0002.93
2022-10-28 17:31:00,,0832.8,5.00,0.00,25.2,24.0,00.0,33.9,27.1,13.5,0000.0,0004.53,0003.24,0002.93
2022-10-28 17:32:00,,0832.8,5.00,0.00,25.2,24.0,00.0,33.9,27.1,13.9,0000.0,0004.59,0003.26,0002.96
2022-10-28 17:33:00,,0832.9,5.00,0.00,25.2,24.0,00.0,33.9,27.1,13.8,0000.0,0004.70,0003.28,0002.99
2022-10-28 17:34:00,,0832.8,5.00,0.00,25.2,24.0,00.0,33.9,27.2,13.4,0000.0,0005.02,0003.30,0003.02
2022-10-28 17:35:00,,0832.8,5.00,0.00,25.2,24.1,00.0,33.9,27.2,13.6,0000.0,0005.54,0003.29,0003.01
2022-10-28 17:36:00,,0832.8,5.00,0.00,25.2,24.1,00.0,34.0,27.2,13.4,0000.0,0005.50,0003.28,0003.01
2022-10-28 17:37:00,,0832.8,5.00,0.00,25.3,24.1,00.0,34.0,27.2,13.3,0000.0,0005.62,0003.28,0003.01
2022-10-28 17:38:00,,0832.8,4.98,0.00,25.3,24.1,00.0,34.0,27.2,13.2,0000.0,0005.40,0003.27,0003.02
2022-10-28 17:39:00,,0832.8,5.00,0.00,25.3,24.1,00.0,34.0,27.2,13.2,0000.0,0005.29,0003.27,0003.02
2022-10-28 17:40:00,,0832.8,5.00,0.00,25.3,24.2,00.0,34.0,27.3,13.4,0000.0,0005.49,0003.26,0003.03
2022-10-28 17:41:00,,0832.8,5.00,0.00,25.3,24.2,00.0,34.0,27.3,13.2,0000.0,0005.54,0003.26,0003.03
2022-10-28 17:42:00,,0832.8,5.01,0.00,25.3,24.2,00.0,34.0,27.3,13.1,0000.0,0005.58,0003.27,0003.06
2022-10-28 17:43:00,,0832.9,4.98,0.00,25.4,24.2,00.0,34.0,27.3,13.1,0000.0,0005.71,0003.26,0003.07
2022-10-28 17:44:00,,0832.9,5.00,0.00,25.4,24.2,00.0,34.1,27.3,13.2,0000.0,0005.72,0003.25,0003.07
2022-10-28 17:45:00,,0832.8,5.00,0.00,25.4,24.2,00.0,34.1,27.4,13.1,0000.0,0005.49,0003.26,0003.07
2022-10-28 17:46:00,,0832.9,5.01,0.00,25.4,24.2,00.0,34.1,27.3,13.0,0000.0,0005.31,0003.27,0003.06
2022-10-28 17:47:00,,0832.8,5.00,0.00,25.4,24.3,00.0,34.1,27.3,13.0,0000.0,0005.49,0003.28,0003.06
2022-10-28 17:48:00,,0832.9,4.99,0.00,25.4,24.3,00.0,34.1,27.4,12.6,0000.0,0005.57,0003.28,0003.06
2022-10-28 17:49:00,,0832.9,5.00,0.00,25.4,24.3,00.0,34.1,27.4,12.5,0000.0,0005.49,0003.26,0003.05
2022-10-28 17:50:00,,0832.8,5.00,0.00,25.5,24.3,00.0,34.2,27.4,12.7,0000.0,0005.47,0003.25,0003.05
2022-10-28 17:51:00,,0832.8,5.00,0.00,25.5,24.3,00.0,34.2,27.4,12.6,0000.0,0005.34,0003.25,0003.04
2022-10-28 17:52:00,,0832.9,5.00,0.00,25.5,24.3,00.0,34.2,27.4,12.8,0000.0,0005.31,0003.27,0003.04
2022-10-28 17:53:00,,0832.8,5.01,0.00,25.5,24.4,00.0,34.2,27.4,12.5,0000.0,0005.51,0003.30,0003.03
2022-10-28 17:54:00,,0832.7,5.00,0.00,25.5,24.4,00.0,34.2,27.4,12.6,0000.0,0005.36,0003.30,0003.03
2022-10-28 17:55:00,,0832.8,5.00,0.00,25.5,24.4,00.0,34.2,27.5,12.8,0000.0,0005.25,0003.30,0003.04
2022-10-28 17:56:00,,0832.7,5.00,0.00,25.6,24.4,00.0,34.3,27.5,12.8,0000.0,0005.57,0003.30,0003.06
2022-10-28 17:57:00,,0832.7,4.97,0.00,25.6,24.4,00.0,34.3,27.5,12.5,0000.0,0005.18,0003.28,0003.06
2022-10-28 17:58:00,,0832.7,5.01,0.00,25.6,24.4,00.0,34.3,27.5,12.6,0000.0,0004.98,0003.28,0003.07
2022-10-28 17:59:00,,0832.7,5.01,0.00,25.6,24.5,00.0,34.3,27.5,12.7,0000.0,0005.12,0003.26,0003.05
